Flag for Kosovo Weather past 2 weeks in Uroševac, Kosovo

39 °F

Light rain. Mostly cloudy.

Feels Like: 39 °F
Forecast: 27 / 39 °F
Wind: No wind

Location: Skopje-Petrovec

Current Time: Nov 27, 2015 at 3:56:35 AM

Latest Report: Nov 27, 2015 at 3:00 AM

Visibility: 5 mi

Pressure: 29.74 "Hg (27.68 "Hg at 582m altitude)

Humidity: 93%

Dew point: 37 °F

Location of UroševacLocation

Historic Weather in Uroševac — Graph


Uroševac temperature yesterday

Maximum temperature yesterday: 48 °F (at 12:30 PM)
Minimum temperature yesterday: 43 °F (at 6:30 AM)
Average temperature yesterday: 45 °F

Past Weeks' High & Low Weather Summary

High73 °F (Nov 12, 2:00 PM)100% (Nov 13, 3:00 AM)30.42 "Hg (Nov 13, 3:00 AM)
Low30 °F (Nov 20, 3:30 AM)34% (Nov 15, 2:00 PM)29.36 "Hg (Nov 21, 10:00 PM)
Average48 °F78%30.02 "Hg
* Reported Nov 12 2:00 AM — Nov 27 2:30 AM, Uroševac, Weather by CustomWeather, © 2015

Note: Actual official high and low records may vary slightly from our data, if they occured in-between our weather recording intervals... More about our weather records


Uroševac weather history for previous 24 hours

Time TempWeatherWind HumidityBarometerVisibility
2:30 AM
Fri, Nov 27
39 °FLight rain. Mostly cloudy.1 mph93%29.74 "Hg5 mi
2:00 AM39 °FLight rain. Mostly cloudy.No wind93%29.74 "Hg5 mi
1:30 AM39 °FDrizzle. Mostly cloudy.No wind93%29.74 "HgN/A
1:00 AM41 °FLight rain. Mostly cloudy.5 mph87%29.74 "HgN/A
12:00 AM41 °FLight rain. Overcast.7 mph87%29.74 "HgN/A
11:00 PM
Thu, Nov 26
43 °FOvercast.6 mph76%29.74 "HgN/A
10:30 PM43 °FOvercast.7 mph76%29.74 "HgN/A
10:00 PM43 °FOvercast.9 mph76%29.74 "HgN/A
9:30 PM43 °FOvercast.6 mph76%29.74 "HgN/A
9:00 PM43 °FOvercast.9 mph76%29.74 "HgN/A
8:30 PM43 °FOvercast.10 mph76%29.71 "HgN/A
8:00 PM43 °FMostly cloudy.9 mph76%29.71 "HgN/A
7:30 PM43 °FMostly cloudy.10 mph76%29.71 "HgN/A
7:00 PM43 °FMostly cloudy.7 mph76%29.68 "HgN/A
6:30 PM43 °FMostly cloudy.8 mph76%29.68 "HgN/A
6:00 PM45 °FMostly cloudy.9 mph76%29.68 "HgN/A
5:30 PM45 °FMostly cloudy.9 mph76%29.68 "HgN/A
5:00 PM45 °FMostly cloudy.6 mph76%29.65 "HgN/A
4:30 PM46 °FMostly cloudy.No wind82%29.65 "HgN/A
4:00 PM46 °FMostly cloudy.2 mph82%29.65 "HgN/A
3:30 PM46 °FMostly cloudy.3 mph82%29.65 "HgN/A
3:00 PM48 °FMostly cloudy.2 mph76%29.62 "HgN/A
2:30 PM48 °FMostly cloudy.2 mph76%29.62 "HgN/A
2:00 PM48 °FMostly cloudy.2 mph76%29.62 "HgN/A
1:30 PM48 °FMostly cloudy.No wind71%29.62 "HgN/A
1:00 PM48 °FCloudy.7 mph71%29.62 "HgN/A
12:30 PM48 °FCloudy.6 mph71%29.62 "HgN/A
12:00 PM46 °FCloudy.8 mph76%29.59 "HgN/A
11:30 AM46 °FCloudy.7 mph76%29.62 "HgN/A
11:00 AM45 °FMostly cloudy.8 mph81%29.62 "HgN/A
10:30 AM45 °FMostly cloudy.7 mph81%29.62 "HgN/A
10:00 AM45 °FOvercast.6 mph76%29.62 "HgN/A
9:30 AM45 °FOvercast.3 mph81%29.59 "HgN/A
9:00 AM45 °FOvercast.5 mph81%29.59 "HgN/A
8:30 AM45 °FOvercast.6 mph81%29.59 "HgN/A
8:00 AM43 °FOvercast.6 mph81%29.59 "HgN/A
7:30 AM43 °FMore clouds than sun.9 mph81%29.56 "HgN/A
6:30 AM43 °FMostly cloudy.9 mph81%29.56 "HgN/A
5:30 AM45 °FMostly cloudy.9 mph81%29.50 "HgN/A
4:30 AM45 °FMostly cloudy.8 mph81%29.50 "HgN/A
4:00 AM45 °FMostly cloudy.8 mph87%29.50 "HgN/A
3:30 AM45 °FMostly cloudy.6 mph87%29.50 "HgN/A
3:00 AM45 °FMostly cloudy.5 mph87%29.50 "HgN/A
Weather by CustomWeather, © 2015

See weather overviewHow to use our weather pages